[[{"header":{"parameterUnit":"m.s-1","parameterCategory":1,"la1":30.2991,"la2":30.254,"lo1":-89.0895,"lo2":-89.0444,"dy":0.0017,"dx":0.0017,"nx":28,"ny":28,"refTime":"2023-10-09T21:00:00:Z","depth":0,"parameterNumber":2,"parameterNumberName":"U-component_of_WINDS"},"data":[0,0,0,0,0,0,0,0,0,0,0,0,0,0,0,0,0,0,0,0,0,0,0,0,0,0,0,0,0,0,0,0,0,0,0,0,0,0,0,0,0,0,0,0,0,0,0,0,0,0,0,0,0,0,0,0,0,0,3.6678,3.6678,0,3.6688,3.6688,3.6688,3.6587,3.6584,3.6582,3.6579,3.659,3.6592,3.6595,0,0,0,0,0,0,0,0,0,0,0,0,0,3.6569,3.6571,3.6678,3.6678,3.6678,3.6688,3.6688,3.6688,3.6588,3.6584,3.6581,3.6578,3.6589,3.6592,3.6596,0,0,0,0,0,0,0,0,0,0,0,0,0,3.6601,3.6572,3.6677,3.6629,3.6625,3.6688,3.6688,3.6688,3.6588,3.6584,3.658,3.6576,3.6588,3.6592,3.6596,3.6706,0,0,3.6609,3.6611,0,0,0,0,0,0,0,0,3.66,3.6605,3.6636,3.6632,3.6628,3.6632,3.6653,3.6694,3.6589,3.6602,3.6579,3.6574,3.6607,3.661,3.6621,3.6706,3.6707,3.661,3.6612,3.6614,3.6615,0,0,0,0,0,0,0,3.6597,3.6604,3.6681,3.6637,3.6632,3.6606,3.6606,3.666,3.6628,3.6601,3.6594,3.6596,3.6604,3.6617,3.662,3.6707,3.6609,3.6613,3.6616,3.6618,3.6877,3.6881,0,0,0,0,0,0,3.6602,3.6603,3.6681,3.6682,3.6603,3.6611,3.6611,3.6635,3.6627,3.6622,3.66,3.6591,3.6611,3.6615,3.662,3.6743,3.6614,3.6618,3.6621,3.6873,3.6878,3.6883,0,0,0,0,0,0,3.66,3.661,3.6681,3.664,3.6647,3.6617,3.6645,3.6637,3.665,3.6626,3.662,3.6619,3.6608,3.6614,3.6684,3.6742,3.662,3.6624,3.6868,3.6874,3.688,3.6993,0,0,0,0,0,0,3.6597,3.661,3.6652,3.6642,3.665,3.6746,3.6649,3.664,3.6657,3.6647,3.6642,3.6638,3.6605,3.6678,3.6688,3.6746,3.6627,3.6862,3.6871,3.6878,3.6984,3.7003,3.7019,0,0,0,0,0,3.6594,3.6685,3.6655,3.6665,3.6702,3.6749,3.6754,3.6715,3.6663,3.6704,3.6688,3.6638,3.6735,3.6686,3.6697,3.6757,3.6858,3.6868,3.6878,3.6976,3.6999,3.7019,0,0,0,0,0,0,3.6704,3.6683,3.6649,3.674,3.6747,3.6732,3.6783,3.6741,3.6763,3.6752,3.6703,3.6703,3.678,3.6776,3.6721,3.6859,3.6787,3.68,3.6859,3.688,3.6897,3.6895,3.6631,0,0,0,0,0,3.6739,3.6779,3.6759,3.6841,3.6846,3.6814,3.6833,3.6802,3.6807,3.681,3.6799,3.6806,3.6837,3.6859,3.6888,3.6984,3.6979,3.7031,3.7048,3.7062,3.7072,3.7117,3.7138,3.6915,3.6914,3.6914,0,0,3.6812,3.6805,3.6834,3.6863,3.6864,3.6905,3.6817,3.6866,3.6894,3.6817,3.6881,3.6874,3.6878,3.696,3.6996,3.6959,3.7133,3.7075,3.7086,3.7088,3.7129,3.715,3.7169,3.6921,3.692,3.6919,0,0,3.6963,3.6965,3.703,3.7032,3.7035,3.7013,3.7029,3.702,3.7011,3.7074,3.7015,3.7049,3.7106,3.7109,3.7119,3.7268,3.722,3.7279,3.7368,3.7412,3.743,3.7445,3.7493,3.7511,3.7289,3.729,3.729,0,3.7053,3.7112,3.7069,3.7119,3.7132,3.7063,3.7127,3.7132,3.7145,3.7154,3.7113,3.7179,3.7177,3.7256,3.7292,3.7304,3.7317,3.7277,3.7431,3.7446,3.7459,3.7504,3.7523,3.7296,3.7296,3.7295,3.7294,0,3.7219,3.7261,3.7313,3.7324,3.7343,3.7401,3.7364,3.7389,3.7356,3.7338,3.74,3.7396,3.7419,3.7436,3.7406,3.751,3.7486,3.744,3.7365,3.7488,3.7529,3.7546,3.7306,3.7303,3.7302,3.73,0,0,3.744,3.7424,3.7443,3.7445,3.7442,3.7472,3.7526,3.7547,3.7566,3.7577,3.7617,3.7666,3.762,3.7631,3.76,3.764,3.7751,3.7587,3.7586,3.7613,3.7859,3.7891,3.7912,3.7722,3.7725,3.7727,3.7857,0,3.7583,3.7671,3.7632,3.7724,3.7759,3.7693,3.7738,3.774,3.7724,3.7751,3.7733,3.7765,3.7706,3.7711,3.7748,3.773,3.7799,3.7721,3.7755,3.7757,3.7751,3.7935,3.797,3.8092,3.7874,3.7876,3.7878,0,3.7762,3.7776,3.7871,3.7856,3.7869,3.7911,3.7924,3.7952,3.7952,3.7937,3.7947,3.7906,3.7954,3.7883,3.7947,3.7894,3.7907,3.79,3.7903,3.7901,3.7822,3.7933,3.8131,3.8148,3.7904,3.7902,3.7901,0,3.7906,3.7951,3.8011,3.8015,3.8001,3.803,3.8026,3.8022,3.8035,3.8048,3.8056,3.8075,3.8085,3.81,3.8064,3.8016,3.8131,3.8058,3.8117,3.8117,3.814,3.8139,3.8338,3.8157,3.8157,3.8156,3.8156,0,3.8067,3.8126,3.8074,3.8111,3.8174,3.8129,3.8192,3.8181,3.8176,3.8208,3.8154,3.8185,3.8138,3.8164,3.8137,3.8191,3.8198,3.8184,3.8175,3.8186,3.8187,3.819,3.8179,3.8161,3.816,3.8159,3.8158,0,3.8238,3.8207,3.8267,3.8247,3.8244,3.829,3.8273,3.8305,3.8285,3.8325,3.8332,3.83,3.8327,3.8294,3.832,3.8301,3.8372,3.8354,3.8372,3.8364,3.8422,3.8415,3.8627,3.8651,3.8459,3.8461,3.8463,0,3.8341,3.8384,3.8368,3.8384,3.8382,3.8411,3.8423,3.838,3.8395,3.8396,3.8427,3.8449,3.8464,3.8511,3.8489,3.8507,3.8485,3.8558,3.8487,3.8495,3.8479,3.8475,3.8477,3.8571,3.8573,3.8575,3.8577,0,3.8524,3.8505,3.8525,3.8538,3.8554,3.8564,3.8569,3.8586,3.854,3.856,3.8586,3.8597,3.8621,3.8642,3.8654,3.8648,3.8604,3.86,3.8613,3.8622,3.8628,3.862,3.8405,3.8594,3.8592,3.8591,3.859,3.8589,3.866,3.8693,3.8685,3.8707,3.8706,3.8711,3.8738,3.872,3.8741,3.8755,3.8729,3.8761,3.8755,3.8765,3.8765,3.8788,3.8756,3.8777,3.8781,3.8786,3.8792,3.8629,3.879,3.879,3.8789,3.8789,3.8789,0,3.8835,3.8826,3.8847,3.8854,3.8871,3.8828,3.883,3.8847,3.8875,3.8874,3.8889,3.8917,3.8936,3.8916,3.8931,3.8953,3.8933,3.8958,3.8953,3.8952,3.8823,3.8807,3.8974,3.8974,3.8974,3.8973,3.8973,3.8973,3.8928,3.8979,3.8959,3.9008,3.8998,3.9027,3.9031,3.9035,3.9032,3.9065,3.908,3.9067,3.9056,3.907,3.9085,3.9078,3.9084,3.9115,3.9101,3.898,3.8962,3.8944,3.8928,3.9118,3.9119,3.9227,3.9228,3.9229]},{"header":{"parameterUnit":"m.s-1","parameterCategory":1,"la1":30.2991,"la2":30.254,"lo1":-89.0895,"lo2":-89.0444,"dy":0.0017,"dx":0.0017,"nx":28,"ny":28,"refTime":"2023-10-09T21:00:00:Z","depth":0,"parameterNumber":3,"parameterNumberName":"V-component_of_WINDS"},"data":[0,0,0,0,0,0,0,0,0,0,0,0,0,0,0,0,0,0,0,0,0,0,0,0,0,0,0,0,0,0,0,0,0,0,0,0,0,0,0,0,0,0,0,0,0,0,0,0,0,0,0,0,0,0,0,0,0,0,2.8844,2.8844,0,2.8872,2.8872,2.8872,2.8848,2.8847,2.8846,2.8845,2.8872,2.8874,2.8876,0,0,0,0,0,0,0,0,0,0,0,0,0,2.8766,2.8768,2.8844,2.8844,2.8845,2.8872,2.8872,2.8873,2.8848,2.8847,2.8845,2.8844,2.8872,2.8874,2.8876,0,0,0,0,0,0,0,0,0,0,0,0,0,2.8798,2.8768,2.8844,2.8835,2.8835,2.8872,2.8872,2.8873,2.8848,2.8847,2.8845,2.8844,2.8871,2.8874,2.8876,2.8922,0,0,2.8884,2.8885,0,0,0,0,0,0,0,0,2.8796,2.88,2.8836,2.8836,2.8836,2.8855,2.8855,2.8889,2.8848,2.8843,2.8845,2.8843,2.8868,2.887,2.8879,2.8924,2.8925,2.8884,2.8886,2.8887,2.8888,0,0,0,0,0,0,0,2.8794,2.8799,2.8855,2.8837,2.8836,2.8829,2.8832,2.8861,2.8864,2.8843,2.8842,2.8845,2.8867,2.8877,2.8879,2.8925,2.8884,2.8886,2.8888,2.8889,2.9005,2.9007,0,0,0,0,0,0,2.8793,2.8797,2.8854,2.8856,2.8812,2.8832,2.8835,2.885,2.8863,2.8864,2.8847,2.8844,2.8873,2.8877,2.888,2.8932,2.8887,2.8889,2.8891,2.9004,2.9005,2.9007,0,0,0,0,0,0,2.8791,2.8798,2.8853,2.8826,2.8833,2.8835,2.8852,2.8851,2.8861,2.8866,2.8866,2.8856,2.8872,2.8877,2.8911,2.8933,2.889,2.8893,2.9002,2.9004,2.9006,2.9038,0,0,0,0,0,0,2.8789,2.8798,2.8816,2.8827,2.8834,2.8884,2.8853,2.8853,2.8865,2.8862,2.8874,2.8875,2.8871,2.8908,2.8914,2.8936,2.8895,2.9,2.9003,2.9006,2.9035,2.9042,2.9047,0,0,0,0,0,2.8786,2.8825,2.8817,2.8824,2.8857,2.8886,2.889,2.8885,2.8867,2.8885,2.8887,2.8875,2.893,2.8911,2.8918,2.8941,2.8998,2.9002,2.9005,2.9033,2.904,2.9047,0,0,0,0,0,0,2.8817,2.8826,2.8818,2.8861,2.8872,2.8881,2.8904,2.8893,2.891,2.8907,2.89,2.8903,2.8938,2.8944,2.8923,2.8985,2.8961,2.8966,2.898,2.8987,2.8993,2.899,2.8897,0,0,0,0,0,2.8828,2.8851,2.8858,2.8895,2.8901,2.8901,2.8914,2.8909,2.8921,2.8925,2.8931,2.8942,2.8962,2.8975,2.8994,2.9036,2.9037,2.9055,2.9061,2.9066,2.907,2.9089,2.9097,2.9019,2.9019,2.9019,0,0,2.8853,2.8861,2.8876,2.8901,2.891,2.8932,2.8906,2.8932,2.8947,2.8929,2.8961,2.8966,2.8978,2.9016,2.9033,2.9021,2.9091,2.907,2.9074,2.9075,2.9094,2.9101,2.9108,2.9021,2.9021,2.902,0,0,2.8908,2.8918,2.8948,2.8956,2.8969,2.8969,2.8976,2.8986,2.8988,2.902,2.9006,2.9024,2.9059,2.9068,2.9076,2.9132,2.912,2.9139,2.9168,2.9187,2.9193,2.9199,2.9216,2.9222,2.9143,2.9143,2.9143,0,2.8937,2.897,2.8965,2.899,2.9001,2.8985,2.9014,2.9023,2.9041,2.9048,2.9035,2.9077,2.9084,2.9122,2.9135,2.9144,2.915,2.9136,2.9193,2.9198,2.9203,2.9219,2.9226,2.9145,2.9145,2.9144,2.9144,0,2.9003,2.9027,2.905,2.9066,2.908,2.9107,2.9104,2.9118,2.9112,2.9112,2.9143,2.9152,2.917,2.9179,2.9174,2.9216,2.9208,2.9194,2.917,2.9213,2.9227,2.9234,2.9148,2.9147,2.9146,2.9146,0,0,2.9079,2.9091,2.9099,2.9105,2.9117,2.9134,2.916,2.9178,2.9188,2.9202,2.9221,2.925,2.9237,2.9247,2.9242,2.9259,2.9299,2.9243,2.9243,2.9251,2.9342,2.9351,2.9358,2.9292,2.9293,2.9294,2.934,0,2.9132,2.9177,2.9171,2.9214,2.9233,2.9217,2.9239,2.9248,2.9249,2.9265,2.9266,2.9285,2.9268,2.9273,2.929,2.9291,2.9317,2.9288,2.9308,2.9309,2.9303,2.9366,2.9376,2.942,2.9346,2.9347,2.9348,0,2.9201,2.9214,2.9258,2.9264,2.9272,2.9292,2.9306,2.9323,2.9332,2.9331,2.9341,2.9332,2.9356,2.9333,2.9365,2.9345,2.9353,2.9355,2.9356,2.9356,2.933,2.9366,2.9434,2.9439,2.9358,2.9357,2.9356,0,2.9248,2.9278,2.9307,2.9313,2.9321,2.9335,2.9339,2.9347,2.9357,2.9369,2.9375,2.939,2.9398,2.941,2.9405,2.9389,2.9437,2.9414,2.9435,2.9435,2.9444,2.9443,2.9512,2.9453,2.9453,2.9453,2.9453,0,2.9307,2.9333,2.9327,2.9345,2.9373,2.9366,2.9395,2.9397,2.9403,2.942,2.9408,2.9424,2.9418,2.9433,2.9429,2.9454,2.9459,2.9458,2.9456,2.9457,2.9457,2.9461,2.9457,2.9455,2.9455,2.9454,2.9454,0,2.9364,2.9361,2.9391,2.9396,2.9397,2.9418,2.9422,2.9437,2.9437,2.9458,2.9462,2.9461,2.9478,2.9474,2.9494,2.9491,2.9522,2.9518,2.9518,2.9516,2.9537,2.9534,2.9609,2.9617,2.9555,2.9556,2.9557,0,2.94,2.942,2.9426,2.9436,2.9441,2.9458,2.9467,2.946,2.9471,2.9481,2.9495,2.9511,2.9523,2.955,2.9551,2.9564,2.9559,2.9584,2.9561,2.9561,2.9556,2.9554,2.9555,2.9588,2.9589,2.9589,2.959,0,2.9464,2.9461,2.9475,2.9488,2.95,2.951,2.9519,2.9528,2.9521,2.9533,2.955,2.9559,2.9578,2.9593,2.9605,2.9608,2.9597,2.9597,2.9602,2.9603,2.9601,2.96,2.9528,2.9595,2.9595,2.9594,2.9594,2.9594,2.951,2.9526,2.9532,2.9547,2.9552,2.956,2.9574,2.9575,2.9588,2.9602,2.9598,2.9616,2.9622,2.9637,2.9642,2.9656,2.9646,2.9654,2.9656,2.9658,2.9659,2.9601,2.9658,2.9658,2.9658,2.9658,2.9658,0,2.9571,2.9574,2.9588,2.96,2.9611,2.96,2.9608,2.9618,2.9635,2.9641,2.9653,2.9671,2.9684,2.9685,2.9698,2.9709,2.9704,2.9712,2.971,2.971,2.9668,2.9661,2.9715,2.9715,2.9715,2.9715,2.9715,2.9715,2.9604,2.9629,2.9626,2.9652,2.9655,2.9672,2.9677,2.9684,2.9689,2.9709,2.972,2.972,2.9724,2.9737,2.9748,2.9748,2.9752,2.9762,2.9759,2.9719,2.9714,2.9708,2.9701,2.9763,2.9763,2.98,2.9801,2.9801]}]]